TimeCST,TemperatureF,Dew PointF,Humidity,Sea Level PressureIn,VisibilityMPH,Wind Direction,Wind SpeedMPH,Gust SpeedMPH,PrecipitationIn,Events,Conditions,WindDirDegrees,DateUTC
12:35 AM,43.2,28.4,56,30.19,10.0,East,8.1,-,N/A,,Overcast,80,2012-02-03 06:35:00
12:55 AM,41.4,28.2,60,30.18,10.0,ENE,5.8,-,N/A,,Mostly Cloudy,70,2012-02-03 06:55:00
1:15 AM,41.5,28.0,59,30.17,10.0,ENE,3.5,-,N/A,,Scattered Clouds,70,2012-02-03 07:15:00
1:35 AM,43.7,28.4,55,30.18,10.0,Calm,Calm,-,N/A,,Scattered Clouds,0,2012-02-03 07:35:00
1:55 AM,44.4,29.1,55,30.19,10.0,East,6.9,-,N/A,,Mostly Cloudy,80,2012-02-03 07:55:00
2:15 AM,44.8,29.3,55,30.20,10.0,ESE,6.9,-,N/A,,Overcast,110,2012-02-03 08:15:00
2:35 AM,44.8,29.3,55,30.19,10.0,East,6.9,-,N/A,,Overcast,90,2012-02-03 08:35:00
2:55 AM,44.8,29.3,55,30.19,10.0,East,8.1,-,N/A,,Overcast,90,2012-02-03 08:55:00
3:15 AM,46.9,29.1,50,30.19,10.0,East,11.5,-,N/A,,Overcast,100,2012-02-03 09:15:00
3:35 AM,46.8,29.1,50,30.19,10.0,SE,13.8,-,N/A,,Overcast,130,2012-02-03 09:35:00
3:55 AM,49.3,30.7,49,30.17,10.0,ENE,12.7,16.1,N/A,,Overcast,70,2012-02-03 09:55:00
4:15 AM,49.6,29.8,47,30.17,10.0,ENE,10.4,-,N/A,,Overcast,60,2012-02-03 10:15:00
4:35 AM,49.8,30.0,47,30.17,10.0,ENE,12.7,-,N/A,,Overcast,60,2012-02-03 10:35:00
4:55 AM,49.5,28.8,45,30.17,10.0,East,11.5,-,N/A,,Overcast,80,2012-02-03 10:55:00
5:15 AM,48.0,28.9,48,30.17,10.0,ENE,10.4,-,N/A,,Overcast,70,2012-02-03 11:15:00
5:35 AM,47.1,29.5,50,30.17,10.0,East,11.5,-,N/A,,Overcast,80,2012-02-03 11:35:00
5:55 AM,45.5,29.8,54,30.17,10.0,East,11.5,-,N/A,,Overcast,90,2012-02-03 11:55:00
6:15 AM,44.8,30.0,56,30.19,10.0,East,8.1,-,N/A,,Overcast,100,2012-02-03 12:15:00
6:35 AM,46.0,30.0,54,30.20,10.0,ESE,9.2,-,N/A,,Overcast,110,2012-02-03 12:35:00
6:55 AM,44.4,32.2,62,30.22,10.0,East,9.2,-,N/A,,Light Drizzle,100,2012-02-03 12:55:00
7:15 AM,42.6,34.9,74,30.23,10.0,East,6.9,-,N/A,Rain,Light Rain,100,2012-02-03 13:15:00
7:35 AM,41.5,35.8,80,30.24,10.0,SE,6.9,-,0.01,Rain,Light Rain,130,2012-02-03 13:35:00
7:55 AM,40.1,36.5,87,30.24,7.0,ESE,6.9,-,0.02,Rain,Light Rain,120,2012-02-03 13:55:00
8:15 AM,40.3,36.9,88,30.23,10.0,East,9.2,-,0.01,Rain,Light Rain,100,2012-02-03 14:15:00
8:35 AM,40.1,37.4,90,30.20,7.0,East,15.0,-,0.02,Rain,Light Rain,90,2012-02-03 14:35:00
8:55 AM,40.5,37.8,90,30.15,5.0,East,23.0,29.9,0.02,Rain,Light Rain,90,2012-02-03 14:55:00
9:15 AM,41.2,38.3,89,30.22,10.0,ESE,15.0,20.7,N/A,,Overcast,110,2012-02-03 15:15:00
9:35 AM,41.5,38.5,89,30.21,10.0,East,17.3,23.0,N/A,,Overcast,90,2012-02-03 15:35:00
9:55 AM,41.7,38.3,88,30.22,10.0,East,18.4,23.0,N/A,,Overcast,100,2012-02-03 15:55:00
10:15 AM,41.9,38.3,87,30.23,10.0,East,15.0,20.7,N/A,,Overcast,80,2012-02-03 16:15:00
10:35 AM,41.9,38.3,87,30.24,10.0,East,11.5,-,N/A,,Overcast,80,2012-02-03 16:35:00
10:55 AM,41.7,37.9,86,30.26,10.0,ENE,11.5,-,N/A,,Overcast,70,2012-02-03 16:55:00
11:15 AM,41.2,37.6,87,30.26,10.0,ENE,11.5,18.4,N/A,,Overcast,70,2012-02-03 17:15:00
11:35 AM,41.0,37.6,88,30.24,10.0,East,18.4,21.9,N/A,Rain,Light Rain,80,2012-02-03 17:35:00
11:55 AM,41.0,37.9,89,30.22,4.0,East,19.6,23.0,N/A,Rain,Light Rain,80,2012-02-03 17:55:00
12:15 PM,41.2,38.1,89,30.21,5.0,East,17.3,26.5,0.01,Rain,Light Rain,90,2012-02-03 18:15:00
12:35 PM,41.0,37.8,88,30.23,7.0,East,13.8,-,0.01,,Overcast,80,2012-02-03 18:35:00
12:55 PM,41.0,37.8,88,30.21,10.0,East,16.1,20.7,0.01,,Overcast,90,2012-02-03 18:55:00
1:15 PM,41.2,37.8,88,30.21,10.0,East,11.5,21.9,N/A,,Overcast,80,2012-02-03 19:15:00
1:35 PM,41.2,37.6,87,30.18,10.0,East,17.3,23.0,N/A,,Overcast,80,2012-02-03 19:35:00
1:55 PM,41.0,37.2,86,30.20,10.0,ENE,13.8,18.4,N/A,,Overcast,70,2012-02-03 19:55:00
2:15 PM,41.0,36.9,85,30.19,10.0,East,11.5,-,N/A,,Overcast,80,2012-02-03 20:15:00
2:35 PM,41.2,36.9,85,30.19,10.0,East,17.3,-,N/A,,Overcast,80,2012-02-03 20:35:00
2:55 PM,41.4,36.5,83,30.17,10.0,ENE,16.1,21.9,N/A,,Overcast,60,2012-02-03 20:55:00
3:15 PM,41.2,36.9,85,30.19,10.0,NE,11.5,-,N/A,,Overcast,40,2012-02-03 21:15:00
3:35 PM,40.5,36.9,87,30.17,7.0,NE,17.3,21.9,N/A,,Overcast,50,2012-02-03 21:35:00
3:55 PM,40.1,36.5,87,30.17,7.0,NE,17.3,23.0,N/A,,Overcast,40,2012-02-03 21:55:00
4:15 PM,40.1,36.3,86,30.18,7.0,NE,16.1,21.9,N/A,,Overcast,40,2012-02-03 22:15:00
4:35 PM,39.7,36.1,87,30.18,7.0,NE,17.3,24.2,N/A,,Overcast,40,2012-02-03 22:35:00
4:55 PM,38.8,34.9,86,30.19,7.0,NNE,17.3,23.0,N/A,,Overcast,30,2012-02-03 22:55:00
5:15 PM,37.8,34.7,89,30.19,4.0,NNE,19.6,23.0,N/A,,Overcast,20,2012-02-03 23:15:00
5:35 PM,37.0,34.7,91,30.20,2.5,NNE,18.4,-,N/A,Rain,Light Rain,30,2012-02-03 23:35:00
5:55 PM,36.5,34.3,92,30.20,2.5,NNE,20.7,-,N/A,Rain,Light Rain,30,2012-02-03 23:55:00
6:15 PM,36.1,34.0,92,30.21,5.0,NE,20.7,27.6,N/A,,Overcast,40,2012-02-04 00:15:00
6:35 PM,36.0,34.0,93,30.21,5.0,NNE,20.7,-,N/A,,Overcast,30,2012-02-04 00:35:00
6:55 PM,35.6,33.8,93,30.22,4.0,NNE,20.7,-,N/A,,Drizzle,30,2012-02-04 00:55:00
7:15 PM,35.6,33.8,93,30.22,3.0,NNE,20.7,-,N/A,Rain,Light Rain,30,2012-02-04 01:15:00
7:35 PM,35.1,33.4,94,30.22,4.0,NNE,19.6,-,N/A,Rain,Light Rain,20,2012-02-04 01:35:00
7:55 PM,35.2,33.4,93,30.22,5.0,NNE,19.6,-,N/A,Rain,Rain,30,2012-02-04 01:55:00
8:15 PM,35.6,33.8,93,30.21,4.0,NNE,19.6,-,N/A,Rain,Light Rain,30,2012-02-04 02:15:00
8:35 PM,35.2,33.8,94,30.21,4.0,NNE,21.9,-,N/A,,Drizzle,30,2012-02-04 02:35:00
8:55 PM,35.1,33.6,94,30.19,4.0,NE,24.2,29.9,N/A,Rain,Rain,40,2012-02-04 02:55:00
9:15 PM,34.3,32.9,94,30.19,3.0,NNE,21.9,28.8,N/A,Snow,Light Snow,30,2012-02-04 03:15:00
9:35 PM,33.8,32.7,96,30.19,3.0,NNE,21.9,27.6,N/A,Rain,Light Rain,30,2012-02-04 03:35:00
9:55 PM,34.0,32.7,95,30.19,5.0,NNE,24.2,31.1,N/A,,Overcast,30,2012-02-04 03:55:00
10:15 PM,34.2,32.5,94,30.19,5.0,NNE,24.2,29.9,N/A,Snow,Light Snow,30,2012-02-04 04:15:00
10:35 PM,34.0,32.4,94,30.20,5.0,NNE,19.6,-,N/A,Snow,Light Snow,30,2012-02-04 04:35:00
10:55 PM,33.8,32.2,94,30.20,4.0,NNE,19.6,-,N/A,Snow,Light Snow,30,2012-02-04 04:55:00
11:15 PM,33.3,32.0,95,30.19,2.5,NNE,23.0,-,0.01,Snow,Light Snow,30,2012-02-04 05:15:00
11:35 PM,32.9,32.0,96,30.19,1.0,NNE,23.0,28.8,0.01,Snow,Light Snow,30,2012-02-04 05:35:00
11:55 PM,33.1,32.0,96,30.19,1.0,NNE,23.0,27.6,0.01,Snow,Light Snow,30,2012-02-04 05:55:00